ボレリー彗星

19P/Borrelly (2008)

English version
Home page
Total 6,336 html files since Dec. 4, 1995
Updated on July 15, 2008

---------------------------------------------------------------------

・ プロフィール

・ 軌道要素

Epoch 2008 Aug. 2.0 TT = JDT 2454680.5
T 2008 July 22.32968 TT                                 MPC
q   1.3547768            (2000.0)            P               Q
n   0.14383090     Peri.  353.37824     +0.34598066     -0.80092461
a   3.6077346      Node    75.44469     +0.88232010     +0.10060971
e   0.6244799      Incl.   30.32428     +0.31907464     +0.59025203
P   6.85
From 1230 observations 1994 June 12-2007 Aug. 31, mean residual 0".69.  Non-
   gravitational parameters A1 = +0.27 +/- 0.01, A2 = -0.0473 +/- 0.0005.

・ 星図

・ 光度変化

        m1 = 7.4 + 5 logΔ + 15.0 log r

---------------------------------------------------------------------

軌道要素はM.P.E.C. 2007-Q46に掲載されたものです。
星図は StellaNavigator Ver.2.0 for Windows (アストロアーツ 編著 / アスキー出版局刊) で作成したものです。
光度グラフはComet for Windowsで作成したものです。

---------------------------------------------------------------------

Copyright(C) 1995-2008 Seiichi Yoshida (comet@aerith.net). All rights reserved.